Zurück zum Katalog

STARLINK-36697

AktivKommunikationSSO
NORAD 67698·PAYLOAD·🇺🇸 United States

Gestartet Feb 7, 2026 von Vandenberg Space Force Base

Loading…

Nächste Überflüge (nächste 24 Stunden)

TLE

AktuellSource: CelesTrak SupGP

Epoche: Sep 15, 2026, 03:27 UTC

1 67698C 26025F   26258.14423611 -.00010558  00000+0 -32778-3 0  2584
2 67698  97.2853   8.1498 0001090  80.5510  31.6818 15.33441046    10

Verfolge STARLINK-36697 in Echtzeit mit AllMySat

Download on the App Store